Time,TemperatureF,DewpointF,PressureIn,WindDirection,WindDirectionDegrees,WindSpeedMPH,WindSpeedGustMPH,Humidity,HourlyPrecipIn,Conditions,Clouds,dailyrainin,SolarRadiationWatts/m^2,SoftwareType,DateUTC
2013-01-07 00:01:00,37.1,29.6,29.95,SSW,211,6.0,8.0,74,0.00,,,0.00,0,HR-IXPWINDi_r2_v1.2.,2013-01-07 05:01:00,
2013-01-07 00:06:00,37.0,29.8,29.95,SSW,211,6.0,8.0,75,0.00,,,0.00,0,HR-IXPWINDi_r2_v1.2.,2013-01-07 05:06:00,
2013-01-07 00:12:00,36.9,29.7,29.95,SW,219,7.0,8.0,75,0.00,,,0.00,0,HR-IXPWINDi_r2_v1.2.,2013-01-07 05:12:00,
2013-01-07 00:17:00,36.8,29.6,29.95,SW,228,5.0,8.0,75,0.00,,,0.00,0,HR-IXPWINDi_r2_v1.2.,2013-01-07 05:17:00,
2013-01-07 00:24:00,36.8,29.9,29.96,SSW,212,7.0,8.0,76,0.00,,,0.00,0,HR-IXPWINDi_r2_v1.2.,2013-01-07 05:24:00,
2013-01-07 00:32:00,36.8,29.9,29.96,SSW,211,7.0,9.0,76,0.00,,,0.00,0,HR-IXPWINDi_r2_v1.2.,2013-01-07 05:32:00,
2013-01-07 00:37:00,36.7,29.8,29.96,SW,223,7.0,10.0,76,0.00,,,0.00,0,HR-IXPWINDi_r2_v1.2.,2013-01-07 05:37:00,
2013-01-07 00:43:00,36.6,29.7,29.96,SW,217,4.0,10.0,76,0.00,,,0.00,0,HR-IXPWINDi_r2_v1.2.,2013-01-07 05:43:00,
2013-01-07 00:52:00,36.2,29.3,29.96,WSW,245,3.0,7.0,76,0.00,,,0.00,0,HR-IXPWINDi_r2_v1.2.,2013-01-07 05:52:00,
2013-01-07 01:01:00,36.1,29.2,29.97,WSW,254,5.0,7.0,76,0.00,,,0.00,0,HR-IXPWINDi_r2_v1.2.,2013-01-07 06:01:00,
2013-01-07 01:07:00,36.1,28.9,29.97,WSW,252,7.0,9.0,75,0.00,,,0.00,0,HR-IXPWINDi_r2_v1.2.,2013-01-07 06:07:00,
2013-01-07 01:13:00,36.1,28.6,29.97,West,267,3.0,9.0,74,0.00,,,0.00,0,HR-IXPWINDi_r2_v1.2.,2013-01-07 06:13:00,
2013-01-07 01:18:00,36.1,28.6,29.97,West,263,3.0,9.0,74,0.00,,,0.00,0,HR-IXPWINDi_r2_v1.2.,2013-01-07 06:18:00,
2013-01-07 01:24:00,36.2,28.7,29.98,WNW,286,3.0,5.0,74,0.00,,,0.00,0,HR-IXPWINDi_r2_v1.2.,2013-01-07 06:24:00,
2013-01-07 01:30:00,36.2,28.7,29.98,SW,234,3.0,6.0,74,0.00,,,0.00,0,HR-IXPWINDi_r2_v1.2.,2013-01-07 06:30:00,
2013-01-07 01:35:00,36.2,28.7,29.98,SW,226,4.0,7.0,74,0.00,,,0.00,0,HR-IXPWINDi_r2_v1.2.,2013-01-07 06:35:00,
2013-01-07 01:41:00,36.3,28.8,29.98,WSW,246,6.0,7.0,74,0.00,,,0.00,0,HR-IXPWINDi_r2_v1.2.,2013-01-07 06:41:00,
2013-01-07 01:46:00,36.2,28.7,29.98,WSW,244,4.0,7.0,74,0.00,,,0.00,0,HR-IXPWINDi_r2_v1.2.,2013-01-07 06:46:00,
2013-01-07 01:53:00,36.2,28.7,29.99,WSW,252,5.0,8.0,74,0.00,,,0.00,0,HR-IXPWINDi_r2_v1.2.,2013-01-07 06:53:00,
2013-01-07 01:58:00,36.2,28.7,29.99,West,267,4.0,8.0,74,0.00,,,0.00,0,HR-IXPWINDi_r2_v1.2.,2013-01-07 06:58:00,
2013-01-07 02:03:00,36.3,28.8,29.99,WSW,254,5.0,7.0,74,0.00,,,0.00,0,HR-IXPWINDi_r2_v1.2.,2013-01-07 07:03:00,
2013-01-07 02:09:00,36.4,28.9,29.99,WSW,244,5.0,7.0,74,0.00,,,0.00,0,HR-IXPWINDi_r2_v1.2.,2013-01-07 07:09:00,
2013-01-07 02:18:00,36.7,28.8,29.99,WSW,251,7.0,8.0,73,0.00,,,0.00,0,HR-IXPWINDi_r2_v1.2.,2013-01-07 07:18:00,
2013-01-07 02:24:00,37.0,29.1,29.99,SW,220,4.0,8.0,73,0.00,,,0.00,0,HR-IXPWINDi_r2_v1.2.,2013-01-07 07:24:00,
2013-01-07 02:30:00,37.0,28.8,30.00,WNW,289,4.0,8.0,72,0.00,,,0.00,0,HR-IXPWINDi_r2_v1.2.,2013-01-07 07:30:00,
2013-01-07 02:36:00,37.0,28.8,29.99,WSW,249,2.0,6.0,72,0.00,,,0.00,0,HR-IXPWINDi_r2_v1.2.,2013-01-07 07:36:00,
2013-01-07 02:43:00,37.0,28.8,30.00,West,266,7.0,7.0,72,0.00,,,0.00,0,HR-IXPWINDi_r2_v1.2.,2013-01-07 07:43:00,
2013-01-07 02:49:00,37.0,28.8,30.00,WSW,250,5.0,7.0,72,0.00,,,0.00,0,HR-IXPWINDi_r2_v1.2.,2013-01-07 07:49:00,
2013-01-07 02:56:00,36.8,29.3,30.00,West,259,4.0,7.0,74,0.00,,,0.00,0,HR-IXPWINDi_r2_v1.2.,2013-01-07 07:56:00,
2013-01-07 03:01:00,36.6,29.1,29.99,West,277,4.0,6.0,74,0.00,,,0.00,0,HR-IXPWINDi_r2_v1.2.,2013-01-07 08:01:00,
2013-01-07 03:07:00,36.4,28.6,29.99,West,263,5.0,5.0,73,0.00,,,0.00,0,HR-IXPWINDi_r2_v1.2.,2013-01-07 08:07:00,
2013-01-07 03:12:00,36.2,28.4,29.99,WNW,286,6.0,6.0,73,0.00,,,0.00,0,HR-IXPWINDi_r2_v1.2.,2013-01-07 08:12:00,
2013-01-07 03:18:00,36.2,28.4,29.99,West,264,5.0,6.0,73,0.00,,,0.00,0,HR-IXPWINDi_r2_v1.2.,2013-01-07 08:18:00,
2013-01-07 03:26:00,36.2,28.7,29.99,West,275,4.0,7.0,74,0.00,,,0.00,0,HR-IXPWINDi_r2_v1.2.,2013-01-07 08:26:00,
2013-01-07 03:35:00,36.0,28.5,29.99,WSW,245,3.0,7.0,74,0.00,,,0.00,0,HR-IXPWINDi_r2_v1.2.,2013-01-07 08:35:00,
2013-01-07 03:43:00,35.9,28.4,29.99,West,269,3.0,8.0,74,0.00,,,0.00,0,HR-IXPWINDi_r2_v1.2.,2013-01-07 08:43:00,
2013-01-07 03:52:00,35.9,28.4,30.00,WSW,250,4.0,9.0,74,0.00,,,0.00,0,HR-IXPWINDi_r2_v1.2.,2013-01-07 08:52:00,
2013-01-07 03:57:00,35.8,28.3,30.00,West,276,5.0,9.0,74,0.00,,,0.00,0,HR-IXPWINDi_r2_v1.2.,2013-01-07 08:57:00,
2013-01-07 04:02:00,35.8,28.3,30.00,West,265,5.0,8.0,74,0.00,,,0.00,0,HR-IXPWINDi_r2_v1.2.,2013-01-07 09:02:00,
2013-01-07 04:08:00,35.7,28.2,30.01,WSW,248,6.0,8.0,74,0.00,,,0.00,0,HR-IXPWINDi_r2_v1.2.,2013-01-07 09:08:00,
2013-01-07 04:13:00,35.7,28.2,30.01,WSW,242,4.0,8.0,74,0.00,,,0.00,0,HR-IXPWINDi_r2_v1.2.,2013-01-07 09:13:00,
2013-01-07 04:27:00,35.6,28.1,30.01,West,263,5.0,8.0,74,0.00,,,0.00,0,HR-IXPWINDi_r2_v1.2.,2013-01-07 09:27:00,
2013-01-07 04:32:00,35.5,28.0,30.01,West,277,4.0,8.0,74,0.00,,,0.00,0,HR-IXPWINDi_r2_v1.2.,2013-01-07 09:32:00,
2013-01-07 04:39:00,35.5,28.3,30.01,West,279,7.0,8.0,75,0.00,,,0.00,0,HR-IXPWINDi_r2_v1.2.,2013-01-07 09:39:00,
2013-01-07 04:44:00,35.6,28.1,30.02,WSW,256,3.0,7.0,74,0.00,,,0.00,0,HR-IXPWINDi_r2_v1.2.,2013-01-07 09:44:00,
2013-01-07 04:51:00,35.5,28.3,30.02,West,277,4.0,7.0,75,0.00,,,0.00,0,HR-IXPWINDi_r2_v1.2.,2013-01-07 09:51:00,
2013-01-07 05:01:00,35.4,28.2,30.02,WNW,290,8.0,8.0,75,0.00,,,0.00,0,HR-IXPWINDi_r2_v1.2.,2013-01-07 10:01:00,
2013-01-07 05:07:00,35.2,28.1,30.03,WNW,302,3.0,8.0,75,0.00,,,0.00,0,HR-IXPWINDi_r2_v1.2.,2013-01-07 10:07:00,
2013-01-07 05:24:00,35.1,28.3,30.04,WNW,286,3.0,9.0,76,0.00,,,0.00,0,HR-IXPWINDi_r2_v1.2.,2013-01-07 10:24:00,
2013-01-07 05:32:00,35.0,28.2,30.05,West,277,5.0,9.0,76,0.00,,,0.00,0,HR-IXPWINDi_r2_v1.2.,2013-01-07 10:32:00,
2013-01-07 05:40:00,35.0,28.2,30.05,West,279,5.0,10.0,76,0.00,,,0.00,0,HR-IXPWINDi_r2_v1.2.,2013-01-07 10:40:00,
2013-01-07 05:49:00,35.0,28.2,30.05,NW,322,2.0,10.0,76,0.00,,,0.00,0,HR-IXPWINDi_r2_v1.2.,2013-01-07 10:49:00,
2013-01-07 05:58:00,34.8,28.0,30.05,WNW,283,5.0,9.0,76,0.00,,,0.00,0,HR-IXPWINDi_r2_v1.2.,2013-01-07 10:58:00,
2013-01-07 06:06:00,34.8,28.0,30.06,WNW,283,5.0,6.0,76,0.00,,,0.00,0,HR-IXPWINDi_r2_v1.2.,2013-01-07 11:06:00,
2013-01-07 06:14:00,-999.0,99.9,30.07,North,-999,-999.0,-999.0,-999,99.99,,,0.00,,HR-IXPWINDi_r2_v1.2.,2013-01-07 11:14:00,
2013-01-07 06:22:00,-999.0,99.9,30.07,North,-999,-999.0,-999.0,-999,99.99,,,0.00,,HR-IXPWINDi_r2_v1.2.,2013-01-07 11:22:00,
2013-01-07 06:30:00,-999.0,99.9,30.08,North,-999,-999.0,-999.0,-999,99.99,,,0.00,,HR-IXPWINDi_r2_v1.2.,2013-01-07 11:30:00,
2013-01-07 06:38:00,-999.0,99.9,30.08,North,-999,-999.0,-999.0,-999,99.99,,,0.00,,HR-IXPWINDi_r2_v1.2.,2013-01-07 11:38:00,
2013-01-07 06:48:00,-999.0,99.9,30.09,North,-999,-999.0,-999.0,-999,99.99,,,0.00,,HR-IXPWINDi_r2_v1.2.,2013-01-07 11:48:00,
2013-01-07 06:56:00,-999.0,99.9,30.09,North,-999,-999.0,-999.0,-999,99.99,,,0.00,,HR-IXPWINDi_r2_v1.2.,2013-01-07 11:56:00,
2013-01-07 07:06:00,-999.0,99.9,30.10,North,-999,-999.0,-999.0,-999,99.99,,,0.00,,HR-IXPWINDi_r2_v1.2.,2013-01-07 12:06:00,
2013-01-07 07:13:00,-999.0,99.9,30.11,North,-999,-999.0,-999.0,-999,99.99,,,0.00,,HR-IXPWINDi_r2_v1.2.,2013-01-07 12:13:00,
2013-01-07 07:30:00,-999.0,99.9,30.12,North,-999,-999.0,-999.0,-999,99.99,,,0.00,,HR-IXPWINDi_r2_v1.2.,2013-01-07 12:30:00,
2013-01-07 07:45:00,-999.0,99.9,30.13,North,-999,-999.0,-999.0,-999,99.99,,,0.00,,HR-IXPWINDi_r2_v1.2.,2013-01-07 12:45:00,
2013-01-07 07:51:00,34.9,28.7,30.13,NW,316,7.0,255.0,78,0.00,,,0.00,18,HR-IXPWINDi_r2_v1.2.,2013-01-07 12:51:00,
2013-01-07 08:00:00,34.9,29.0,30.14,NNW,339,7.0,255.0,79,0.00,,,0.00,21,HR-IXPWINDi_r2_v1.2.,2013-01-07 13:00:00,
2013-01-07 08:07:00,35.1,29.2,30.14,NW,317,4.0,10.0,79,0.00,,,0.00,72,HR-IXPWINDi_r2_v1.2.,2013-01-07 13:07:00,
2013-01-07 08:15:00,35.5,29.6,30.15,NNW,346,10.0,10.0,79,0.00,,,0.00,91,HR-IXPWINDi_r2_v1.2.,2013-01-07 13:15:00,
2013-01-07 08:25:00,35.7,29.5,30.16,North,355,5.0,10.0,78,0.00,,,0.00,127,HR-IXPWINDi_r2_v1.2.,2013-01-07 13:25:00,
2013-01-07 08:57:00,37.0,29.5,30.19,WNW,298,10.0,12.0,74,0.00,,,0.00,216,HR-IXPWINDi_r2_v1.2.,2013-01-07 13:57:00,
2013-01-07 09:11:00,37.4,29.2,30.20,NW,323,9.0,15.0,72,0.00,,,0.00,250,HR-IXPWINDi_r2_v1.2.,2013-01-07 14:11:00,
2013-01-07 09:28:00,37.9,28.6,30.22,NNE,12,12.0,14.0,69,0.00,,,0.00,281,HR-IXPWINDi_r2_v1.2.,2013-01-07 14:28:00,
2013-01-07 09:43:00,38.0,27.6,30.22,NE,47,4.0,14.0,66,0.00,,,0.00,306,HR-IXPWINDi_r2_v1.2.,2013-01-07 14:43:00,
2013-01-07 10:05:00,38.3,27.2,30.24,North,360,7.0,13.0,64,0.00,,,0.00,348,HR-IXPWINDi_r2_v1.2.,2013-01-07 15:05:00,
2013-01-07 10:27:00,38.4,26.9,30.24,North,350,13.0,20.0,63,0.00,,,0.00,383,HR-IXPWINDi_r2_v1.2.,2013-01-07 15:27:00,
2013-01-07 11:05:00,38.9,25.8,30.24,NNW,343,9.0,11.0,59,0.00,,,0.00,422,HR-IXPWINDi_r2_v1.2.,2013-01-07 16:05:00,
2013-01-07 11:36:00,37.5,27.2,30.26,NNE,19,5.0,9.0,66,0.00,,,0.00,107,HR-IXPWINDi_r2_v1.2.,2013-01-07 16:36:00,
2013-01-07 11:43:00,38.1,28.5,30.26,NNE,25,10.0,10.0,68,0.00,,,0.00,503,HR-IXPWINDi_r2_v1.2.,2013-01-07 16:43:00,
2013-01-07 17:55:00,31.6,26.4,30.38,NE,36,0.0,0.0,81,0.00,,,0.00,0,HR-IXPWINDi_r2_v1.2.,2013-01-07 22:55:00,
2013-01-07 18:00:00,31.7,26.5,30.39,NE,36,1.0,2.0,81,0.00,,,0.00,0,HR-IXPWINDi_r2_v1.2.,2013-01-07 23:00:00,
2013-01-07 18:05:00,31.1,25.9,30.39,NE,36,1.0,2.0,81,0.00,,,0.00,0,HR-IXPWINDi_r2_v1.2.,2013-01-07 23:05:00,
2013-01-07 18:10:00,31.6,26.7,30.39,NE,36,0.0,2.0,82,0.00,,,0.00,0,HR-IXPWINDi_r2_v1.2.,2013-01-07 23:10:00,
2013-01-07 18:16:00,31.7,26.5,30.39,NE,36,0.0,2.0,81,0.00,,,0.00,0,HR-IXPWINDi_r2_v1.2.,2013-01-07 23:16:00,
2013-01-07 18:21:00,31.7,26.5,30.39,NE,36,1.0,2.0,81,0.00,,,0.00,0,HR-IXPWINDi_r2_v1.2.,2013-01-07 23:21:00,
2013-01-07 18:26:00,31.3,26.1,30.40,NE,36,1.0,2.0,81,0.00,,,0.00,0,HR-IXPWINDi_r2_v1.2.,2013-01-07 23:26:00,
2013-01-07 18:31:00,31.2,26.3,30.40,NE,36,2.0,3.0,82,0.00,,,0.00,0,HR-IXPWINDi_r2_v1.2.,2013-01-07 23:31:00,
2013-01-07 18:36:00,31.0,26.1,30.40,NE,36,2.0,3.0,82,0.00,,,0.00,0,HR-IXPWINDi_r2_v1.2.,2013-01-07 23:36:00,
2013-01-07 18:41:00,30.7,25.8,30.40,NE,36,2.0,3.0,82,0.00,,,0.00,0,HR-IXPWINDi_r2_v1.2.,2013-01-07 23:41:00,
2013-01-07 18:47:00,31.0,26.4,30.39,NE,36,0.0,3.0,83,0.00,,,0.00,0,HR-IXPWINDi_r2_v1.2.,2013-01-07 23:47:00,
2013-01-07 18:52:00,30.8,25.9,30.39,NE,36,0.0,3.0,82,0.00,,,0.00,0,HR-IXPWINDi_r2_v1.2.,2013-01-07 23:52:00,
2013-01-07 18:57:00,31.0,26.4,30.39,NE,36,0.0,1.0,83,0.00,,,0.00,0,HR-IXPWINDi_r2_v1.2.,2013-01-07 23:57:00,
2013-01-07 19:02:00,30.6,26.0,30.39,NE,36,0.0,1.0,83,0.00,,,0.00,0,HR-IXPWINDi_r2_v1.2.,2013-01-08 00:02:00,
2013-01-07 19:08:00,30.7,26.1,30.40,NE,36,0.0,1.0,83,0.00,,,0.00,0,HR-IXPWINDi_r2_v1.2.,2013-01-08 00:08:00,
2013-01-07 19:13:00,30.7,26.1,30.40,NE,36,0.0,1.0,83,0.00,,,0.00,0,HR-IXPWINDi_r2_v1.2.,2013-01-08 00:13:00,
2013-01-07 19:18:00,30.9,26.3,30.40,NE,36,0.0,0.0,83,0.00,,,0.00,0,HR-IXPWINDi_r2_v1.2.,2013-01-08 00:18:00,
2013-01-07 19:23:00,31.6,27.0,30.39,NE,36,0.0,0.0,83,0.00,,,0.00,0,HR-IXPWINDi_r2_v1.2.,2013-01-08 00:23:00,
2013-01-07 19:28:00,31.2,26.0,30.39,NE,36,0.0,0.0,81,0.00,,,0.00,0,HR-IXPWINDi_r2_v1.2.,2013-01-08 00:28:00,
2013-01-07 19:34:00,30.5,25.9,30.39,NE,36,0.0,0.0,83,0.00,,,0.00,0,HR-IXPWINDi_r2_v1.2.,2013-01-08 00:34:00,
2013-01-07 19:39:00,30.5,26.2,30.39,NE,36,0.0,0.0,84,0.00,,,0.00,0,HR-IXPWINDi_r2_v1.2.,2013-01-08 00:39:00,
2013-01-07 19:44:00,30.5,25.9,30.39,NE,36,0.0,2.0,83,0.00,,,0.00,0,HR-IXPWINDi_r2_v1.2.,2013-01-08 00:44:00,
2013-01-07 19:49:00,30.7,26.4,30.39,ENE,60,0.0,2.0,84,0.00,,,0.00,0,HR-IXPWINDi_r2_v1.2.,2013-01-08 00:49:00,
2013-01-07 19:55:00,31.8,27.2,30.38,SSW,199,0.0,3.0,83,0.00,,,0.00,0,HR-IXPWINDi_r2_v1.2.,2013-01-08 00:55:00,
2013-01-07 20:00:00,32.7,27.8,30.38,South,189,6.0,8.0,82,0.00,,,0.00,0,HR-IXPWINDi_r2_v1.2.,2013-01-08 01:00:00,
2013-01-07 20:05:00,33.7,28.2,30.38,South,186,8.0,9.0,80,0.00,,,0.00,0,HR-IXPWINDi_r2_v1.2.,2013-01-08 01:05:00,
2013-01-07 20:10:00,34.3,28.4,30.39,South,185,4.0,9.0,79,0.00,,,0.00,0,HR-IXPWINDi_r2_v1.2.,2013-01-08 01:10:00,
2013-01-07 20:16:00,34.5,28.3,30.39,SSW,197,7.0,10.0,78,0.00,,,0.00,0,HR-IXPWINDi_r2_v1.2.,2013-01-08 01:16:00,
2013-01-07 20:21:00,34.6,28.1,30.39,SSW,196,6.0,10.0,77,0.00,,,0.00,0,HR-IXPWINDi_r2_v1.2.,2013-01-08 01:21:00,
2013-01-07 20:26:00,34.7,28.2,30.39,South,169,3.0,10.0,77,0.00,,,0.00,0,HR-IXPWINDi_r2_v1.2.,2013-01-08 01:26:00,
2013-01-07 20:31:00,34.9,28.7,30.38,South,191,7.0,10.0,78,0.00,,,0.00,0,HR-IXPWINDi_r2_v1.2.,2013-01-08 01:31:00,
2013-01-07 20:37:00,34.8,28.9,30.38,SSW,192,9.0,13.0,79,0.00,,,0.00,0,HR-IXPWINDi_r2_v1.2.,2013-01-08 01:37:00,
2013-01-07 20:42:00,34.7,28.8,30.38,South,191,12.0,13.0,79,0.00,,,0.00,0,HR-IXPWINDi_r2_v1.2.,2013-01-08 01:42:00,
2013-01-07 20:47:00,34.7,28.5,30.38,South,189,11.0,14.0,78,0.00,,,0.00,0,HR-IXPWINDi_r2_v1.2.,2013-01-08 01:47:00,
2013-01-07 20:52:00,34.8,28.3,30.39,South,181,9.0,14.0,77,0.00,,,0.00,0,HR-IXPWINDi_r2_v1.2.,2013-01-08 01:52:00,
2013-01-07 20:57:00,34.8,28.3,30.39,South,184,14.0,16.0,77,0.00,,,0.00,0,HR-IXPWINDi_r2_v1.2.,2013-01-08 01:57:00,
2013-01-07 21:02:00,34.8,28.6,30.39,SSW,194,12.0,16.0,78,0.00,,,0.00,0,HR-IXPWINDi_r2_v1.2.,2013-01-08 02:02:00,
2013-01-07 21:08:00,34.8,28.9,30.39,SSW,202,10.0,16.0,79,0.00,,,0.00,0,HR-IXPWINDi_r2_v1.2.,2013-01-08 02:08:00,
2013-01-07 21:13:00,34.8,28.6,30.39,South,178,8.0,16.0,78,0.00,,,0.00,0,HR-IXPWINDi_r2_v1.2.,2013-01-08 02:13:00,
2013-01-07 21:18:00,34.8,28.9,30.38,South,178,10.0,16.0,79,0.00,,,0.00,0,HR-IXPWINDi_r2_v1.2.,2013-01-08 02:18:00,
2013-01-07 21:23:00,35.0,29.4,30.38,SSW,198,10.0,16.0,80,0.00,,,0.00,0,HR-IXPWINDi_r2_v1.2.,2013-01-08 02:23:00,
2013-01-07 21:28:00,35.0,29.4,30.38,South,186,14.0,18.0,80,0.00,,,0.00,0,HR-IXPWINDi_r2_v1.2.,2013-01-08 02:28:00,
2013-01-07 21:33:00,34.8,29.5,30.38,South,189,11.0,18.0,81,0.00,,,0.00,0,HR-IXPWINDi_r2_v1.2.,2013-01-08 02:33:00,
2013-01-07 21:38:00,34.8,29.2,30.38,South,186,13.0,18.0,80,0.00,,,0.00,0,HR-IXPWINDi_r2_v1.2.,2013-01-08 02:38:00,
2013-01-07 21:44:00,35.0,29.4,30.38,South,182,17.0,17.0,80,0.00,,,0.00,0,HR-IXPWINDi_r2_v1.2.,2013-01-08 02:44:00,
2013-01-07 21:49:00,35.2,29.9,30.38,South,175,15.0,17.0,81,0.00,,,0.00,0,HR-IXPWINDi_r2_v1.2.,2013-01-08 02:49:00,
2013-01-07 21:54:00,35.1,29.8,30.38,SSW,196,13.0,18.0,81,0.00,,,0.00,0,HR-IXPWINDi_r2_v1.2.,2013-01-08 02:54:00,
2013-01-07 22:00:00,35.0,29.7,30.38,South,173,12.0,18.0,81,0.00,,,0.00,0,HR-IXPWINDi_r2_v1.2.,2013-01-08 03:00:00,
2013-01-07 22:05:00,34.9,29.6,30.38,South,174,14.0,18.0,81,0.00,,,0.00,0,HR-IXPWINDi_r2_v1.2.,2013-01-08 03:05:00,
2013-01-07 22:10:00,34.9,29.6,30.38,South,182,12.0,18.0,81,0.00,,,0.00,0,HR-IXPWINDi_r2_v1.2.,2013-01-08 03:10:00,
2013-01-07 22:15:00,35.0,29.7,30.38,SSW,194,12.0,17.0,81,0.00,,,0.00,0,HR-IXPWINDi_r2_v1.2.,2013-01-08 03:15:00,
2013-01-07 22:21:00,35.0,29.7,30.38,SSW,207,11.0,19.0,81,0.00,,,0.00,0,HR-IXPWINDi_r2_v1.2.,2013-01-08 03:21:00,
2013-01-07 22:26:00,35.0,29.7,30.39,SSE,161,7.0,19.0,81,0.00,,,0.00,0,HR-IXPWINDi_r2_v1.2.,2013-01-08 03:26:00,
2013-01-07 22:31:00,34.9,29.6,30.38,SSW,196,15.0,18.0,81,0.00,,,0.00,0,HR-IXPWINDi_r2_v1.2.,2013-01-08 03:31:00,
2013-01-07 22:36:00,34.8,29.8,30.38,SSW,205,12.0,18.0,82,0.00,,,0.00,0,HR-IXPWINDi_r2_v1.2.,2013-01-08 03:36:00,
2013-01-07 22:41:00,34.9,29.9,30.38,SSW,194,13.0,18.0,82,0.00,,,0.00,0,HR-IXPWINDi_r2_v1.2.,2013-01-08 03:41:00,
2013-01-07 22:47:00,34.7,29.7,30.38,South,177,13.0,18.0,82,0.00,,,0.00,0,HR-IXPWINDi_r2_v1.2.,2013-01-08 03:47:00,
2013-01-07 22:52:00,34.6,29.6,30.38,SW,215,12.0,17.0,82,0.00,,,0.00,0,HR-IXPWINDi_r2_v1.2.,2013-01-08 03:52:00,
2013-01-07 22:57:00,34.4,29.5,30.38,SSW,212,13.0,18.0,82,0.00,,,0.00,0,HR-IXPWINDi_r2_v1.2.,2013-01-08 03:57:00,
2013-01-07 23:02:00,34.3,29.4,30.37,SSW,196,12.0,18.0,82,0.00,,,0.00,0,HR-IXPWINDi_r2_v1.2.,2013-01-08 04:02:00,
2013-01-07 23:07:00,34.4,29.7,30.37,South,191,16.0,18.0,83,0.00,,,0.00,0,HR-IXPWINDi_r2_v1.2.,2013-01-08 04:07:00,
2013-01-07 23:12:00,34.2,29.6,30.38,SSW,204,14.0,18.0,83,0.00,,,0.00,0,HR-IXPWINDi_r2_v1.2.,2013-01-08 04:12:00,
2013-01-07 23:17:00,34.1,29.5,30.38,SSW,194,15.0,20.0,83,0.00,,,0.00,0,HR-IXPWINDi_r2_v1.2.,2013-01-08 04:17:00,
2013-01-07 23:23:00,34.1,29.5,30.38,South,180,18.0,21.0,83,0.00,,,0.00,0,HR-IXPWINDi_r2_v1.2.,2013-01-08 04:23:00,
2013-01-07 23:28:00,34.0,29.4,30.37,South,191,12.0,21.0,83,0.00,,,0.00,0,HR-IXPWINDi_r2_v1.2.,2013-01-08 04:28:00,
2013-01-07 23:33:00,34.0,29.4,30.37,SSW,208,14.0,21.0,83,0.00,,,0.00,0,HR-IXPWINDi_r2_v1.2.,2013-01-08 04:33:00,
2013-01-07 23:38:00,33.9,29.3,30.37,SSW,196,13.0,22.0,83,0.00,,,0.00,0,HR-IXPWINDi_r2_v1.2.,2013-01-08 04:38:00,
2013-01-07 23:44:00,33.9,29.3,30.37,South,182,8.0,22.0,83,0.00,,,0.00,0,HR-IXPWINDi_r2_v1.2.,2013-01-08 04:44:00,
2013-01-07 23:49:00,34.0,29.7,30.37,South,187,18.0,21.0,84,0.00,,,0.00,0,HR-IXPWINDi_r2_v1.2.,2013-01-08 04:49:00,
2013-01-07 23:54:00,33.9,29.3,30.37,South,174,14.0,22.0,83,0.00,,,0.00,0,HR-IXPWINDi_r2_v1.2.,2013-01-08 04:54:00,
2013-01-07 23:59:00,33.8,29.5,30.36,South,173,13.0,22.0,84,0.00,,,0.00,0,HR-IXPWINDi_r2_v1.2.,2013-01-08 04:59:00,